Tracking 30415 objects as of 15-May-2025
HD Live streaming from Space Station
objects crossing your sky now

ARABSAT 2B

Track ARABSAT 2B now!
ARABSAT 2B is classified as:


NORAD ID: 24652
Int'l Code: 1996-063A
Perigee: 36,025.1 km
Apogee: 36,049.3 km
Inclination: 9.7 °
Period: 1,448.6 minutes
Semi major axis: 42408 km
RCS: 3.8888 m2 (large)
Launch date: November 13, 1996
Source: Arab Satellite Communications Organization (AB)
Launch site: FRENCH GUIANA (FRGUI)

Second generation; radio and tv communications to Middle East.
Your satellite tracking list
Your tracking list is empty




NASA's NSSDC Master Catalog

Two Line Element Set (TLE):
1 24652U 96063A   25133.43636062  .00000093  00000-0  00000-0 0  9999
2 24652   9.7230  52.4429 0002851  43.5196 168.0206  0.99409569104483
Source of the keplerian elements: AFSPC